This demonstration page uses our WeatherBlox Daily Observations layout. Learn more.

Left ArrowRight Arrow

Hourly Observations for August 3, 2015

Temp ( °F °C ) Dew Point ( °F °C ) Humidity (%) Winds ( mph kmh ) Pressure ( in mb ) Visibility ( mi km ) Precip ( " mm )
12:15 am 00:15 Clear 64 17.6 59 15.1 85 85 NNW 5 7 29.88 1012 10 16 N/A
12:35 am 00:35 Clear 64 17.5 59 15.2 86 86 N 3 6 29.88 1012 10 16 N/A
12:55 am 00:55 Clear 65 18.4 59 14.9 80 80 NE 7 11 29.88 1012 10 16 N/A
1:15 am 01:15 Clear 65 18.2 58 14.2 78 78 Calm 29.91 1013 7 11 N/A
1:35 am 01:35 Clear 64 18 57 13.7 76 76 Calm 29.91 1013 10 16 N/A
1:55 am 01:55 Clear 62 16.5 57 14.1 86 86 ESE 3 6 29.91 1013 10 16 N/A
2:15 am 02:15 Clear 60 15.6 56 13.5 87 87 SSE 3 6 29.97 1015 10 16 N/A
2:35 am 02:35 Clear 60 15.5 57 13.8 90 90 Calm 29.94 1014 10 16 N/A
2:55 am 02:55 Clear 60 15.6 57 14.1 91 91 NE 6 9 29.94 1014 10 16 N/A
3:15 am 03:15 Clear 59 15.2 57 13.8 91 91 NNE 6 9 29.94 1014 10 16 N/A
3:35 am 03:35 Clear 60 15.8 57 14.1 90 90 NE 3 6 29.94 1014 10 16 N/A
3:55 am 03:55 Clear 61 15.9 57 14.1 89 89 NNE 3 6 29.94 1014 10 16 N/A
4:15 am 04:15 Clear 62 16.5 59 15 91 91 ENE 6 9 29.91 1013 10 16 N/A
4:35 am 04:35 Clear 63 17.3 61 16 92 92 ENE 7 11 29.91 1013 10 16 N/A
4:55 am 04:55 Clear 64 17.7 61 16.3 92 92 E 7 11 29.91 1013 10 16 N/A
5:15 am 05:15 Clear 64 18 62 16.7 92 92 NE 6 9 29.91 1013 10 16 N/A
5:35 am 05:35 Clear 65 18.1 62 16.9 93 93 ENE 3 6 29.91 1013 10 16 N/A
5:55 am 05:55 Clear 64 18 62 16.7 92 92 E 6 9 29.91 1013 10 16 N/A
6:15 am 06:15 Clear 65 18.1 63 17 93 93 Calm 29.91 1013 10 16 N/A
6:35 am 06:35 Clear 65 18.1 63 17 93 93 NE 3 6 29.94 1014 10 16 N/A
6:55 am 06:55 Sunny 64 17.7 62 16.6 93 93 ENE 5 7 29.94 1014 10 16 N/A
7:15 am 07:15 Sunny 64 17.8 62 16.8 94 94 E 5 7 29.94 1014 10 16 N/A
7:35 am 07:35 Sunny 65 18.3 63 17.3 94 94 E 6 9 29.94 1014 10 16 N/A
7:55 am 07:55 Sunny 66 19 64 17.7 92 92 ENE 5 7 29.94 1014 10 16 N/A
8:15 am 08:15 Sunny 67 19.4 64 17.7 90 90 E 5 7 29.94 1014 10 16 N/A
8:35 am 08:35 Sunny 69 20.3 65 18.3 88 88 ENE 8 13 29.97 1015 10 16 N/A
8:55 am 08:55 Mostly Cloudy 70 21 65 18.5 86 86 ENE 10 17 29.94 1014 10 16 N/A
9:15 am 09:15 Mostly Cloudy 71 21.6 66 18.7 84 84 ENE 12 19 29.94 1014 10 16 N/A
9:35 am 09:35 Partly Cloudy 72 22 64 18 78 78 E 12 19 29.94 1014 10 16 N/A
9:55 am 09:55 Partly Cloudy 74 23.1 64 18 73 73 E 13 20 29.94 1014 10 16 N/A
10:15 am 10:15 Sunny 76 24.5 65 18.2 68 68 E 16 26 29.91 1013 10 16 N/A
10:35 am 10:35 Sunny 77 25 65 18.1 66 66 E 17 28 29.91 1013 10 16 N/A
10:55 am 10:55 Sunny 77 25.1 64 17.9 64 64 ESE 15 24 29.91 1013 10 16 N/A
11:15 am 11:15 Sunny 78 25.5 64 18 63 63 E 15 24 29.91 1013 10 16 N/A
11:35 am 11:35 Sunny 79 26 65 18.2 62 62 ESE 15 24 29.91 1013 10 16 N/A
11:55 am 11:55 Sunny 80 26.4 64 17.7 59 59 E 14 22 29.88 1012 10 16 N/A
12:15 pm 12:15 Sunny 80 26.8 65 18.2 59 59 SE 15 24 29.85 1011 10 16 N/A
12:35 pm 12:35 Sunny 81 27 65 18.5 60 60 E 13 20 29.85 1011 10 16 N/A
12:55 pm 12:55 Sunny 81 27.1 66 18.8 61 61 SE 15 24 29.85 1011 10 16 N/A
1:15 pm 13:15 Sunny 83 28.2 67 19.5 59 59 ESE 12 19 29.85 1011 10 16 N/A
1:35 pm 13:35 Sunny 82 27.8 67 19.2 60 60 SE 12 19 29.85 1011 10 16 N/A
1:55 pm 13:55 Sunny 83 28.1 67 19.6 60 60 ESE 12 19 29.85 1011 10 16 N/A
2:15 pm 14:15 Sunny 83 28.6 67 19.5 58 58 ESE 12 19 29.85 1011 10 16 N/A
2:35 pm 14:35 Sunny 85 29.4 68 19.8 56 56 ESE 7 11 29.85 1011 10 16 N/A
2:55 pm 14:55 Sunny 85 29.7 68 19.8 55 55 SE 13 20 29.85 1011 10 16 N/A
3:15 pm 15:15 Sunny 85 29.5 67 19.4 55 55 SE 10 17 29.83 1010 10 16 N/A
3:35 pm 15:35 Sunny 85 29.5 67 19.2 54 54 SE 10 17 29.83 1010 10 16 N/A
3:55 pm 15:55 Sunny 85 29.2 69 20.4 59 59 SSE 9 15 29.83 1010 10 16 N/A
4:15 pm 16:15 Sunny 84 29.1 69 20.3 59 59 S 8 13 29.83 1010 10 16 N/A
4:35 pm 16:35 Sunny 86 29.8 69 20.4 57 57 SE 9 15 29.83 1010 10 16 N/A
4:55 pm 16:55 Sunny 84 29.1 69 20.6 60 60 SE 9 15 29.83 1010 10 16 N/A
5:15 pm 17:15 Sunny 84 29.1 69 20.6 60 60 SE 9 15 29.83 1010 10 16 N/A
5:35 pm 17:35 Sunny 84 29 70 20.9 62 62 SE 8 13 29.83 1010 10 16 N/A
5:55 pm 17:55 Sunny 84 29 70 20.9 62 62 SE 8 13 29.83 1010 10 16 N/A
6:15 pm 18:15 Sunny 84 29.1 70 21 62 62 SE 8 13 29.80 1009 10 16 N/A
6:35 pm 18:35 Sunny 83 28.4 71 21.6 67 67 E 13 20 29.80 1009 10 16 N/A
6:55 pm 18:55 Sunny 82 28 71 21.7 69 69 ESE 12 19 29.80 1009 10 16 N/A
7:15 pm 19:15 Sunny 81 27.1 71 21.6 72 72 ESE 9 15 29.80 1009 10 16 N/A
7:35 pm 19:35 Sunny 80 26.7 71 21.5 73 73 ESE 13 20 29.80 1009 10 16 N/A
7:55 pm 19:55 Sunny 80 26.5 70 21.3 73 73 ESE 14 22 29.80 1009 10 16 N/A
8:15 pm 20:15 Sunny 78 25.7 70 21.2 76 76 ESE 12 19 29.83 1010 10 16 N/A
8:35 pm 20:35 Sunny 78 25.3 70 21.2 78 78 ESE 12 19 29.83 1010 10 16 N/A
8:55 pm 20:55 Clear 76 24.7 70 21 80 80 ESE 12 19 29.83 1010 10 16 N/A
9:15 pm 21:15 Clear 76 24.5 70 21.1 81 81 E 10 17 29.83 1010 10 16 N/A
9:35 pm 21:35 Clear 75 24 70 21 83 83 E 9 15 29.83 1010 10 16 N/A
9:55 pm 21:55 Clear 74 23.6 70 21 85 85 E 8 13 29.85 1011 10 16 N/A
10:15 pm 22:15 Clear 74 23.3 69 20.6 85 85 E 9 15 29.88 1012 10 16 N/A
10:35 pm 22:35 Clear 73 23 69 20.5 86 86 E 10 17 29.88 1012 10 16 N/A
10:55 pm 22:55 Clear 73 22.8 68 20 84 84 E 9 15 29.88 1012 10 16 N/A
11:15 pm 23:15 Clear 73 22.5 68 19.9 85 85 E 8 13 29.88 1012 10 16 N/A
11:35 pm 23:35 Clear 72 22.2 67 19.7 86 86 E 7 11 29.88 1012 10 16 N/A
11:55 pm 23:55 Clear 72 22 67 19.5 86 86 E 7 11 29.88 1012 10 16 N/A

Powered by AerisWeather